Tracking 34151 objects as of 20-May-2026
HD Live streaming from Space Station
objects crossing your sky now

DMSP 5D-3 F16 DEB

Track DMSP 5D-3 F16 DEB now!
10-day predictions


NORAD ID: 28056
Int'l Code: 2003-048C
Perigee: 789.4 km
Apogee: 790.9 km
Inclination: 98.8 °
Period: 100.5 minutes
Semi major axis: 7161 km
RCS: 0.072 m2 (small)
Launch date: October 18, 2003
Source: United States (US)
Launch site: AIR FORCE WESTERN TEST RANGE (AFWTR)

Note: This is SATELLITE DEBRIS
Your satellite tracking list
Your tracking list is empty




NASA's NSSDC Master Catalog

Two Line Element Set (TLE):
1 28056U 03048C   26140.47548256  .00001198  00000-0  45793-3 0  9990
2 28056  98.7905 154.2453 0001080 199.8318 160.2823 14.32607931170481
Source of the keplerian elements: AFSPC